EA3KZ-1 Weather Reports


Display with metric or nautical units.
time (UTC)temp
F
wind
direction
speed
MPH
gust
MPH
rain 1hr
in
rain 24hr
in
rain mn
in
humidity
%
barometer
mb
20260507081546 60 12 3.0 11.0 0.00 0.00 0.00 75 1009.6
20260507080543 60 89 2.0 4.0 0.00 0.00 0.00 78 1009.7
20260507075541 60 78 0.0 2.0 0.00 0.00 0.00 79 1009.8
20260507074538 58 55 1.0 4.0 0.00 0.00 0.00 82 1009.8
20260507073535 57 342 3.0 6.0 0.00 0.00 0.00 81 1009.7
20260507072533 57 359 2.0 6.0 0.00 0.00 0.00 80 1009.9
20260507071530 57 3 1.0 4.0 0.00 0.00 0.00 79 1009.8
20260507070528 58 99 1.0 4.0 0.00 0.00 0.00 78 1009.6
20260507065525 58 110 0.0 4.0 0.00 0.00 0.00 76 1009.5
20260507064522 59 45 0.0 2.0 0.00 0.00 0.00 74 1009.3
20260507063520 58 346 2.0 4.0 0.00 0.00 0.00 75 1009.3
20260507062517 59 81 1.0 2.0 0.00 0.00 0.00 74 1009.0
20260507061515 58 30 1.0 4.0 0.00 0.00 0.00 76 1009.0
20260507060612 56 296 2.0 4.0 0.00 0.00 0.00 78 1008.9
20260507055609 56 274 1.0 4.0 0.00 0.00 0.00 79 1008.9
20260507054607 56 276 1.0 2.0 0.00 0.00 0.00 79 1008.9
20260507053604 56 281 0.0 2.0 0.00 0.00 0.00 80 1008.8
20260507052602 55 0.0 0.0 0.00 0.00 0.00 82 1008.6
20260507051559 54 287 1.0 4.0 0.00 0.00 0.00 83 1008.5
20260507050557 53 282 1.0 4.0 0.00 0.00 0.00 85 1008.5
20260507045554 53 260 0.0 2.0 0.00 0.00 0.00 85 1008.5
20260507044551 53 315 0.0 2.0 0.00 0.00 0.00 85 1008.4
20260507043549 53 290 1.0 4.0 0.00 0.00 0.00 86 1008.5
20260507042546 53 268 1.0 4.0 0.00 0.00 0.00 86 1008.5
20260507041544 52 285 0.0 2.0 0.00 0.00 0.00 86 1008.4
20260507040541 52 0.0 0.0 0.00 0.00 0.00 86 1008.5
20260507035538 52 0.0 2.0 0.00 0.00 0.00 86 1008.5
20260507034536 53 256 1.0 2.0 0.00 0.00 0.00 86 1008.4
20260507033533 53 0.0 0.0 0.00 0.00 0.00 86 1008.5
20260507032531 52 0.0 0.0 0.00 0.00 0.00 86 1008.6
20260507031528 53 0.0 2.0 0.00 0.00 0.00 86 1008.8
20260507030525 53 0.0 0.0 0.00 0.00 0.00 86 1008.7
20260507025523 53 282 1.0 4.0 0.00 0.00 0.00 85 1008.5
20260507024520 53 278 3.0 4.0 0.00 0.00 0.00 85 1008.6
20260507023518 53 281 3.0 4.0 0.00 0.00 0.00 85 1008.4
20260507022515 53 280 3.0 4.0 0.00 0.00 0.00 85 1008.5
20260507021613 53 284 3.0 4.0 0.00 0.00 0.00 85 1008.5
20260507020610 53 289 3.0 6.0 0.00 0.00 0.00 85 1008.6
20260507015607 54 295 3.0 4.0 0.00 0.00 0.00 85 1008.7
20260507014605 54 265 3.0 4.0 0.00 0.00 0.00 85 1008.8
20260507013602 53 297 3.0 4.0 0.00 0.00 0.00 86 1008.8
20260507012600 53 294 3.0 4.0 0.00 0.00 0.00 86 1008.7
20260507011557 53 295 4.0 6.0 0.00 0.00 0.00 86 1008.7
20260507010554 53 296 4.0 6.0 0.00 0.00 0.00 87 1008.9
20260507005552 53 293 4.0 6.0 0.00 0.00 0.00 87 1008.9
20260507004549 53 286 4.0 6.0 0.00 0.00 0.00 87 1009.0
20260507003547 53 301 4.0 7.0 0.00 0.00 0.00 88 1009.0
20260507002544 53 296 4.0 6.0 0.00 0.00 0.00 88 1009.0
20260507001541 53 288 3.0 7.0 0.00 0.00 0.00 88 1009.2
20260507000539 53 293 5.0 7.0 0.00 0.00 0.00 88 1009.1
20260506235536 53 307 4.0 7.0 0.00 0.00 0.00 88 1009.2
20260506234534 54 294 5.0 8.0 0.00 0.00 0.00 89 1009.1
20260506233531 54 280 4.0 8.0 0.00 0.00 0.00 89 1009.2
20260506232529 54 296 5.0 7.0 0.00 0.00 0.00 89 1009.3
20260506231526 54 303 5.0 7.0 0.00 0.00 0.00 89 1009.3
20260506230523 54 293 5.0 8.0 0.00 0.00 0.00 88 1009.3
20260506225521 54 290 5.0 7.0 0.00 0.00 0.00 87 1009.3
20260506224518 54 289 4.0 8.0 0.00 0.00 0.00 85 1009.3
20260506223515 55 307 4.0 7.0 0.00 0.00 0.00 84 1009.3
20260506222613 55 307 3.0 4.0 0.00 0.00 0.00 84 1009.3
20260506221610 55 282 4.0 6.0 0.00 0.00 0.00 84 1009.3
20260506220608 55 297 2.0 4.0 0.00 0.00 0.00 83 1009.3
20260506215605 55 311 3.0 6.0 0.00 0.00 0.00 83 1009.2
20260506214603 55 276 2.0 4.0 0.00 0.00 0.00 83 1009.1
20260506213600 55 300 3.0 4.0 0.00 0.00 0.00 82 1009.2
20260506212557 56 295 2.0 4.0 0.00 0.00 0.00 83 1009.2
20260506211555 56 307 4.0 6.0 0.00 0.00 0.00 82 1009.2
20260506210552 57 341 2.0 4.0 0.00 0.00 0.00 80 1009.1
20260506205550 57 6 1.0 2.0 0.00 0.00 0.00 79 1009.1
20260506204547 57 15 1.0 4.0 0.00 0.00 0.00 79 1008.9
20260506203544 58 15 1.0 4.0 0.00 0.00 0.00 77 1008.7
20260506202542 58 6 2.0 6.0 0.00 0.00 0.00 78 1008.7
20260506201539 57 5 2.0 4.0 0.00 0.00 0.00 80 1008.5
20260506200531 58 359 1.0 4.0 0.00 0.00 0.00 78 1008.4
20260506195528 58 14 2.0 4.0 0.00 0.00 0.00 78 1008.2
20260506194520 58 348 2.0 4.0 0.00 0.00 0.00 80 1008.0
20260506193518 58 325 2.0 6.0 0.00 0.00 0.00 78 1007.7
20260506192515 59 348 2.0 6.0 0.00 0.00 0.00 74 1007.6
20260506191607 59 33 3.0 6.0 0.00 0.00 0.00 71 1007.6
20260506190604 60 4 3.0 9.0 0.00 0.00 0.00 71 1007.4
20260506185557 60 36 5.0 11.0 0.00 0.00 0.00 71 1007.2
20260506184554 60 68 3.0 8.0 0.00 0.00 0.00 69 1007.1
20260506183551 60 5 5.0 11.0 0.00 0.00 0.00 68 1006.9
20260506182543 61 353 3.0 9.0 0.00 0.00 0.00 67 1006.8
20260506181540 61 23 4.0 7.0 0.00 0.00 0.00 67 1006.8
20260506180532 62 18 7.0 13.0 0.00 0.00 0.00 66 1006.7
20260506175529 63 55 4.0 11.0 0.00 0.00 0.00 63 1006.6
20260506174526 63 21 6.0 13.0 0.00 0.00 0.00 62 1006.5
20260506173518 64 333 4.0 13.0 0.00 0.00 0.00 59 1006.1
20260506172515 64 20 5.0 9.0 0.00 0.00 0.00 56 1006.1
20260506171607 66 55 2.0 6.0 0.00 0.01 0.00 54 1006.2
20260506170604 66 159 1.0 4.0 0.00 0.01 0.00 55 1006.1
20260506165557 66 100 1.0 4.0 0.00 0.01 0.00 54 1006.0
20260506164554 65 100 2.0 6.0 0.00 0.02 0.00 55 1006.0
20260506163551 65 102 3.0 9.0 0.00 0.02 0.00 55 1005.9
20260506162543 65 104 3.0 11.0 0.00 0.04 0.00 55 1005.9
20260506161540 67 118 2.0 6.0 0.00 0.04 0.00 54 1005.8
20260506160533 67 115 2.0 11.0 0.00 0.05 0.00 54 1005.7
20260506155530 66 71 3.0 11.0 0.00 0.24 0.00 55 1005.7
20260506154527 66 153 3.0 11.0 0.00 0.33 0.00 55 1005.6
20260506153519 68 119 4.0 9.0 0.00 0.33 0.00 52 1005.7
20260506152517 68 87 4.0 11.0 0.00 0.33 0.00 49 1005.6
20260506151608 69 149 3.0 8.0 0.00 0.33 0.00 49 1005.7
20260506150605 69 139 2.0 8.0 0.00 0.33 0.00 48 1005.7
20260506145603 68 119 4.0 7.0 0.00 0.33 0.00 49 1005.7
20260506144554 68 99 5.0 11.0 0.00 0.33 0.00 47 1005.9
20260506143551 69 108 4.0 11.0 0.00 0.33 0.00 46 1005.9
20260506142543 68 127 4.0 11.0 0.00 0.33 0.00 48 1006.0
20260506141540 68 129 5.0 11.0 0.00 0.33 0.00 48 1006.1
20260506140533 68 132 5.0 9.0 0.00 0.33 0.00 46 1006.2
20260506135530 68 142 3.0 9.0 0.00 0.33 0.00 45 1006.3
20260506134528 67 170 5.0 9.0 0.00 0.33 0.00 44 1006.3
20260506133519 69 105 2.0 9.0 0.00 0.33 0.00 43 1006.3
20260506132516 68 196 3.0 11.0 0.00 0.33 0.00 44 1006.4
20260506131608 67 133 7.0 11.0 0.00 0.33 0.00 44 1006.5
20260506130605 69 143 3.0 11.0 0.00 0.33 0.00 44 1006.6
20260506125603 67 195 4.0 14.0 0.00 0.33 0.00 47 1006.6
20260506124555 67 154 6.0 14.0 0.00 0.33 0.00 46 1006.6
20260506123552 68 162 3.0 11.0 0.00 0.33 0.00 45 1006.7
20260506122544 67 121 4.0 11.0 0.00 0.33 0.00 47 1006.7
20260506121541 66 123 4.0 11.0 0.00 0.33 0.00 48 1006.8
20260506120539 68 130 5.0 11.0 0.00 0.33 0.00 44 1006.8
20260506115530 67 103 4.0 11.0 0.00 0.33 0.00 46 1006.8
20260506114528 66 176 3.0 7.0 0.00 0.33 0.00 46 1007.0
20260506113519 66 100 3.0 8.0 0.00 0.33 0.00 48 1006.9
20260506112516 65 143 3.0 6.0 0.00 0.33 0.00 49 1007.1
20260506111610 66 122 2.0 11.0 0.00 0.33 0.00 51 1007.3
20260506110605 64 129 3.0 8.0 0.00 0.33 0.00 54 1007.4
20260506105603 64 127 3.0 8.0 0.00 0.33 0.00 56 1007.4
20260506104555 65 121 1.0 4.0 0.00 0.33 0.00 55 1007.4
20260506103552 64 118 1.0 4.0 0.00 0.33 0.00 58 1007.5
20260506102544 63 277 2.0 4.0 0.00 0.33 0.00 57 1007.6
20260506101541 62 130 3.0 8.0 0.00 0.33 0.00 58 1007.6
20260506100539 61 114 3.0 7.0 0.00 0.33 0.00 58 1007.6
20260506095531 61 141 3.0 6.0 0.00 0.33 0.00 59 1007.9
20260506094529 60 135 2.0 4.0 0.00 0.33 0.00 61 1007.9
20260506093520 59 176 4.0 8.0 0.00 0.33 0.00 61 1007.9
20260506092517 59 215 3.0 6.0 0.00 0.33 0.00 61 1008.0
20260506091515 59 174 3.0 9.0 0.00 0.33 0.00 60 1007.8
20260506090606 59 179 4.0 8.0 0.00 0.33 0.00 61 1007.7
20260506085604 59 208 4.0 9.0 0.00 0.33 0.00 61 1007.7
20260506084555 59 206 3.0 8.0 0.00 0.33 0.00 60 1007.8
20260506083553 58 213 4.0 7.0 0.00 0.33 0.00 60 1007.6
20260506082544 58 146 0.0 4.0 0.00 0.33 0.00 64 1007.6